📊 Raw Sensor Data
Showing records 48576 to 48600 of 85,104 total
| ID | Distance (ft) | Battery V | Battery A | Int Temp (°F) | Int Humid (%) | Ext Temp (°F) | Solar V | RSSI | SNR | Time Stamp |
|---|---|---|---|---|---|---|---|---|---|---|
| 36541 | -- | 3.88 | -5 | 44 | 40 | 44 | 0.00 | -81 | 9 | 04/01/2025 02:01 AM |
| 36540 | -- | 3.88 | -5 | 44 | 40 | 46 | 0.00 | -80 | 7 | 04/01/2025 01:45 AM |
| 36539 | -- | 3.99 | -5 | 44 | 40 | 45 | 0.00 | -81 | 9 | 04/01/2025 01:31 AM |
| 36538 | -- | 3.88 | -5 | 44 | 40 | 45 | 0.00 | -81 | 8 | 04/01/2025 01:16 AM |
| 36537 | -- | 3.89 | -5 | 44 | 40 | 46 | 0.00 | -80 | 7 | 04/01/2025 01:00 AM |
| 36536 | -- | 3.89 | -35 | 44 | 40 | 46 | 0.00 | -80 | 8 | 04/01/2025 12:45 AM |
| 36535 | -- | 3.89 | -5 | 44 | 40 | 46 | 0.10 | -81 | 8 | 04/01/2025 12:30 AM |
| 36534 | -- | 3.87 | -5 | 45 | 41 | 46 | 0.00 | -83 | 8 | 04/01/2025 12:15 AM |
| 36533 | -- | 3.93 | -5 | 45 | 41 | 46 | 0.00 | -82 | 8 | 04/01/2025 12:00 AM |
| 36532 | -- | 4.00 | -5 | 46 | 41 | 47 | 0.10 | -81 | 8 | 03/31/2025 11:45 PM |
| 36531 | -- | 3.94 | -5 | 46 | 41 | 47 | 0.00 | -82 | 7 | 03/31/2025 11:30 PM |
| 36530 | -- | 3.94 | -5 | 46 | 41 | 48 | 0.00 | -82 | 7 | 03/31/2025 11:15 PM |
| 36529 | -- | 4.01 | -5 | 47 | 41 | 48 | 0.00 | -81 | 8 | 03/31/2025 11:00 PM |
| 36528 | -- | 4.01 | -5 | 47 | 41 | 49 | 0.00 | -83 | 8 | 03/31/2025 10:45 PM |
| 36527 | -- | 3.94 | -5 | 48 | 41 | 49 | 0.00 | -83 | 7 | 03/31/2025 10:30 PM |
| 36526 | -- | 3.94 | -5 | 48 | 41 | 49 | 0.00 | -82 | 8 | 03/31/2025 10:15 PM |
| 36525 | -- | 3.94 | -5 | 48 | 41 | 49 | 0.10 | -80 | 7 | 03/31/2025 10:00 PM |
| 36524 | 15.0 | 3.94 | -5 | 47 | 42 | 49 | 0.00 | -77 | 8 | 03/31/2025 09:45 PM |
| 36523 | 15.0 | 4.01 | -5 | 48 | 42 | 49 | 0.00 | -80 | 8 | 03/31/2025 09:30 PM |
| 36522 | -- | 3.95 | -5 | 49 | 42 | 50 | 0.10 | -83 | 8 | 03/31/2025 09:15 PM |
| 36521 | 15.0 | 3.95 | -5 | 49 | 42 | 51 | 0.00 | -82 | 9 | 03/31/2025 09:00 PM |
| 36520 | 15.0 | 3.95 | -5 | 49 | 42 | 50 | 0.00 | -81 | 8 | 03/31/2025 08:45 PM |
| 36519 | 15.0 | 3.95 | -5 | 49 | 43 | 50 | 0.00 | -79 | 8 | 03/31/2025 08:30 PM |
| 36518 | 15.1 | 3.94 | -5 | 49 | 44 | 50 | 0.00 | -79 | 7 | 03/31/2025 08:15 PM |
| 36517 | -- | 3.94 | -5 | 50 | 44 | 50 | 0.00 | -79 | 7 | 03/31/2025 08:01 PM |